Wind_Speed
14 14 14 13 13 13 13 13 14 14 14 14 14 14 14 14 14 13 13 12 12 12 12 12 13 13 12 12 12 12 13 12 12 13 13 12 12 12 13 14 15 15 17 19 19 18 17 15 14 15 16 15 15 16 18 19 18 18 17 17 17 16 15 14 12 8 4 8 10 4 6 4 2 3 2 3 1 4 6 7 8 6 5 5 4 3 3 4
13 13 13 13 13 13 13 13 13 14 14 14 14 14 14 14 13 13 13 13 12 12 12 13 12 12 12 12 12 12 12 11 11 12 12 11 12 12 12 15 16 16 18 18 17 17 17 15 15 16 16 15 14 16 18 18 18 17 17 18 18 16 14 11 10 8 6 12 12 6 6 8 7 2 2 4 1 6 7 7 8 7 7 8 7 6 6 6
13 13 13 13 13 13 13 13 13 13 14 13 13 13 13 13 13 13 13 12 12 12 13 13 12 12 12 11 11 11 10 10 11 11 11 11 12 12 12 14 15 15 17 18 18 18 18 18 19 18 17 15 14 16 18 18 18 17 17 18 16 12 11 10 8 6 4 10 10 7 8 8 7 0 4 6 4 7 8 8 10 11 11 10 10 9 8 7
11 12 12 12 12 12 12 12 12 13 13 13 13 13 13 13 13 13 12 11 12 12 13 12 12 12 11 11 10 10 9 9 9 9 9 9 10 10 12 13 13 14 16 18 19 20 22 22 22 22 20 18 16 18 18 18 18 17 18 17 10 7 9 7 5 5 5 10 10 9 8 10 9 3 4 7 8 8 7 9 11 12 13 10 10 9 9 8
10 11 11 11 12 12 11 12 12 12 12 12 12 12 12 12 12 12 11 11 11 12 13 12 11 11 11 10 9 8 6 6 7 7 7 8 9 9 10 12 13 14 17 19 19 21 23 22 21 22 21 21 20 20 19 17 16 16 17 15 9 7 10 5 3 5 9 12 15 15 11 10 11 10 9 10 11 10 9 12 13 12 11 8 8 10 10 8
10 10 10 10 10 10 11 10 11 11 10 10 10 11 11 11 11 10 10 10 11 12 11 11 11 11 10 9 8 6 5 5 6 6 6 7 8 8 10 12 13 15 17 18 20 22 22 22 23 22 20 22 22 21 19 15 12 13 14 12 9 8 10 5 2 9 11 11 15 18 17 15 12 12 14 14 15 14 12 14 13 9 6 6 7 9 10 8
10 10 10 9 9 9 9 10 10 9 9 9 10 10 10 10 10 10 10 10 11 11 10 10 10 10 9 8 7 6 7 8 7 8 8 7 7 7 9 11 13 15 15 17 19 20 22 23 23 21 20 21 20 19 18 15 11 12 11 10 10 11 12 8 9 13 11 10 13 16 18 18 14 13 14 14 14 13 12 12 12 7 3 5 6 7 8 7
10 10 10 9 9 8 9 9 9 9 8 9 9 10 10 9 9 9 9 10 10 10 10 9 9 9 8 7 6 6 7 8 8 8 8 8 8 8 9 11 13 14 14 15 17 19 21 22 22 20 17 16 16 16 15 12 12 12 11 8 9 12 13 12 14 15 15 15 15 16 18 19 17 16 16 13 9 9 10 12 14 9 4 6 6 7 7 7
10 10 10 10 9 9 8 8 9 8 8 9 9 9 9 9 9 9 9 10 10 10 9 9 8 8 7 6 7 5 4 4 7 8 7 9 9 8 9 10 12 13 14 16 17 19 18 18 16 12 10 9 10 14 12 11 12 12 11 10 12 15 14 14 15 17 18 17 16 18 20 20 15 13 13 10 8 9 11 14 15 9 5 6 6 7 8 10
10 9 9 9 9 9 8 8 8 8 8 8 9 9 9 9 9 8 9 9 10 9 8 8 8 7 7 6 6 5 3 2 5 7 7 8 7 7 8 9 11 13 15 16 17 16 13 13 12 8 8 7 8 11 8 10 12 10 11 13 16 17 18 17 18 19 19 17 16 18 18 12 8 10 12 10 9 9 10 12 10 7 5 3 4 7 11 14
10 9 9 9 9 9 8 8 8 9 9 9 9 9 9 9 9 8 9 9 9 8 8 8 7 7 6 5 5 5 3 2 3 4 4 5 6 7 7 8 11 13 15 16 16 15 15 15 10 6 8 7 8 10 9 10 12 12 14 15 12 13 17 20 21 19 17 16 15 15 13 10 10 12 13 11 10 11 11 11 7 6 4 3 4 8 12 14
9 9 9 9 8 9 8 8 8 9 9 9 9 9 9 9 9 9 9 9 8 8 8 7 7 6 6 5 4 5 3 3 2 2 2 3 4 7 9 10 12 15 17 17 17 18 17 13 8 7 7 7 10 10 10 11 12 13 13 15 12 12 17 21 21 18 16 15 14 12 12 14 14 13 13 13 13 15 12 11 8 8 6 5 5 6 9 13
8 8 8 8 8 8 8 8 8 8 9 10 11 10 10 9 9 9 8 8 8 8 8 7 7 6 5 4 2 4 3 4 4 2 2 3 4 8 12 14 17 19 19 19 20 19 17 12 8 8 8 11 14 11 10 10 9 9 10 14 14 15 20 22 21 19 18 17 13 11 14 17 16 14 16 17 17 17 12 11 10 10 10 7 5 5 7 10
7 7 8 8 8 8 8 8 8 8 8 9 10 11 11 10 10 9 9 8 8 8 8 7 6 6 5 3 2 3 2 4 6 4 3 4 5 9 14 18 21 22 21 21 21 20 16 9 7 11 11 14 15 12 11 10 7 6 7 12 15 19 21 18 18 21 21 20 17 14 17 19 16 12 15 18 19 16 14 13 12 12 12 9 6 4 5 5
7 7 7 8 8 8 8 8 8 7 7 7 8 9 10 11 11 10 9 8 9 9 8 6 6 5 4 2 1 3 2 3 7 6 5 5 6 9 13 17 20 21 21 21 21 20 13 6 9 13 14 16 14 10 12 11 8 7 6 8 12 17 15 8 11 20 21 19 18 18 19 18 15 11 12 20 22 18 17 15 14 15 13 10 6 4 4 3
7 7 7 8 8 8 8 8 8 7 6 5 5 5 7 10 11 11 10 9 9 9 8 6 5 4 2 1 1 2 2 2 5 7 6 7 7 9 12 14 17 18 18 18 18 16 10 9 13 14 14 16 13 11 12 11 10 10 9 10 11 17 16 10 8 14 17 17 17 21 21 17 12 9 14 24 25 20 18 17 17 17 15 13 7 4 7 6
8 8 8 8 8 8 8 7 7 6 5 4 3 2 1 3 7 9 10 10 10 9 8 6 4 3 2 3 2 1 2 2 3 6 8 11 12 13 13 10 11 14 15 15 11 9 8 10 13 14 15 15 15 12 10 11 11 10 8 10 12 15 20 21 17 12 15 18 20 24 24 21 13 8 15 25 25 20 17 15 19 20 17 16 11 7 11 11
9 9 9 8 8 8 8 7 6 5 3 2 2 3 3 2 4 6 8 10 11 10 9 6 5 5 4 4 4 1 1 2 3 6 10 13 13 14 15 11 6 9 12 12 8 6 5 5 6 10 15 16 16 15 12 10 10 9 7 10 11 12 16 21 22 17 16 19 24 25 25 24 15 8 21 25 22 21 15 12 18 20 19 20 16 13 13 13
10 10 9 8 8 7 7 7 6 3 2 3 4 4 3 3 4 5 7 9 11 12 10 8 9 10 6 8 9 5 1 3 5 8 10 10 10 13 15 13 9 7 9 10 8 6 4 3 5 11 18 17 17 17 15 10 7 10 11 13 14 15 16 16 19 19 17 20 26 26 27 22 12 16 27 22 21 21 16 15 16 17 21 21 16 16 15 10
10 10 9 8 8 7 6 6 5 2 2 5 6 4 3 3 5 8 9 10 11 14 14 11 13 15 11 12 12 5 2 2 5 9 9 7 9 11 12 13 10 7 7 9 7 2 2 4 7 15 18 13 13 15 12 9 10 13 13 16 18 21 20 16 13 15 16 22 27 24 26 19 11 23 27 20 22 23 20 19 17 16 19 18 15 17 15 7
10 10 9 8 8 7 5 5 4 2 2 6 5 4 4 5 9 13 13 11 12 15 17 15 15 17 13 13 13 9 4 1 0 6 8 7 8 9 10 9 10 10 9 7 3 4 6 8 8 15 14 7 8 9 9 9 10 12 14 17 19 22 21 15 8 13 20 25 26 23 23 17 13 23 25 23 25 24 22 20 17 16 16 15 15 16 13 8
10 10 9 8 7 7 5 4 3 1 1 4 5 5 5 9 12 14 14 10 10 14 17 18 18 17 14 12 13 13 11 6 4 4 9 9 10 11 9 9 10 11 9 6 6 8 11 9 8 12 10 7 5 5 7 8 10 13 15 17 18 20 18 9 4 12 21 24 24 22 20 15 14 16 16 20 24 24 20 18 16 16 16 16 16 14 13 12
10 9 9 8 7 7 5 4 2 2 1 3 5 7 7 10 11 11 14 13 9 11 16 17 17 16 16 14 15 15 14 11 7 6 9 11 11 12 12 11 9 9 10 11 10 12 12 5 7 6 5 9 8 6 10 13 15 18 16 17 19 17 15 8 4 9 15 18 15 16 18 16 15 12 6 10 23 26 18 14 15 15 16 15 13 12 11 11
10 9 9 8 8 6 5 4 2 1 2 3 7 10 9 9 10 9 12 15 8 8 11 13 15 17 17 13 14 14 11 11 10 7 9 10 11 13 14 12 9 9 10 11 11 13 13 3 1 4 4 8 10 10 14 17 17 18 16 17 17 12 9 8 3 1 5 7 6 8 12 14 16 14 6 6 16 23 17 14 15 15 15 13 11 10 9 7
11 10 9 8 8 7 6 5 3 3 4 5 9 11 10 8 8 8 10 14 9 5 8 10 15 19 18 13 12 12 10 11 12 9 9 10 10 10 12 12 12 13 12 11 11 15 16 11 12 13 10 10 12 13 13 14 13 15 16 14 10 5 5 7 6 4 3 4 6 5 5 9 14 15 11 5 7 13 15 17 18 18 16 16 15 13 10 8
12 12 11 9 9 7 6 6 5 6 6 7 10 12 11 8 6 8 11 15 12 4 6 8 12 16 19 17 11 11 12 14 14 12 13 12 9 7 10 13 13 11 11 10 11 16 17 14 15 18 16 13 14 15 14 12 10 10 12 9 6 4 6 6 5 5 5 4 4 5 3 5 12 15 12 7 5 7 14 21 23 24 21 20 18 13 11 8
14 13 12 11 10 8 8 7 7 8 8 10 13 12 10 8 7 8 9 11 9 2 5 9 10 13 18 18 13 14 13 11 11 15 17 15 14 13 12 15 14 9 9 11 12 14 13 13 14 18 16 15 16 15 14 13 12 13 14 9 6 7 7 5 2 1 5 6 5 5 6 7 11 14 10 9 7 4 12 24 27 25 21 19 19 14 9 8
15 15 14 13 12 10 9 9 8 9 10 12 13 11 8 8 6 6 4 3 3 1 3 7 9 10 11 14 16 16 11 6 8 12 14 14 15 18 17 16 16 14 12 12 14 14 10 10 10 17 17 15 14 12 11 13 15 16 13 9 8 6 4 4 3 1 4 5 7 7 9 7 9 14 10 10 10 6 9 23 27 23 20 18 16 12 10 9
16 16 16 15 14 12 11 11 10 10 11 13 12 11 10 7 5 3 2 1 2 1 2 5 9 9 8 12 18 17 12 9 7 6 10 14 17 21 21 17 16 18 18 17 19 17 12 10 10 15 15 14 12 9 8 11 14 14 10 9 10 8 6 5 5 5 5 3 8 10 12 9 6 13 13 10 11 10 7 13 20 24 23 20 17 13 13 12
15 16 17 17 16 15 13 13 11 10 10 11 11 11 10 7 5 3 1 2 3 2 3 6 9 9 7 11 19 19 16 14 12 8 10 14 16 19 21 18 14 16 19 21 22 20 15 12 11 14 13 11 10 7 6 7 9 12 12 12 13 13 11 9 9 9 5 2 5 5 8 9 4 7 10 9 11 12 12 13 15 22 24 21 19 15 14 14
15 15 16 17 17 16 14 14 14 12 10 9 10 11 10 8 7 4 1 3 5 4 5 6 7 10 9 9 16 20 17 15 14 12 11 13 16 19 18 16 14 14 18 21 22 20 16 12 12 14 11 10 12 10 7 6 5 8 11 14 14 9 6 7 10 8 2 1 2 0 2 4 4 4 7 9 12 14 15 16 17 24 25 22 18 17 17 18
16 16 16 16 17 17 14 14 16 14 10 10 10 10 10 8 8 10 6 2 3 3 5 5 4 9 13 11 13 18 16 16 15 14 14 15 18 20 18 16 15 13 15 17 18 17 14 13 14 15 14 13 15 13 9 9 8 5 7 11 8 1 3 3 5 3 2 2 1 2 5 3 5 5 6 9 11 12 11 17 22 26 25 20 16 17 19 19
17 18 17 16 17 15 14 15 18 16 13 12 11 11 10 7 7 14 14 7 3 3 2 5 5 6 12 14 14 15 15 16 15 16 18 18 18 18 16 15 15 14 12 11 12 11 10 12 13 15 14 12 13 12 8 10 11 7 7 10 7 4 3 1 3 1 2 2 2 4 5 3 4 5 8 11 11 9 10 18 20 21 22 20 17 17 17 17
18 19 18 17 16 14 13 16 18 17 15 14 13 11 12 10 7 11 13 12 10 3 2 3 4 5 8 13 15 16 17 17 15 16 18 20 18 17 17 14 12 13 13 11 10 8 6 7 8 11 13 11 12 11 9 11 11 6 6 7 6 5 4 2 3 3 2 3 1 3 4 1 3 3 5 10 10 12 14 15 15 17 19 18 17 18 17 16
18 19 18 16 15 13 14 17 19 20 18 17 15 14 16 17 13 12 12 11 10 6 5 7 9 11 12 12 13 17 21 18 16 18 19 21 20 16 17 16 12 13 15 14 12 8 8 8 6 8 10 8 9 9 8 11 11 4 5 8 6 6 7 6 5 6 5 2 1 3 4 4 5 5 4 6 6 18 17 14 14 17 18 16 15 15 14 13
16 18 18 16 14 14 17 19 20 21 21 19 18 20 22 21 16 14 11 9 6 7 10 12 12 13 16 12 10 12 17 17 16 19 19 19 21 19 18 16 13 16 18 16 12 7 7 8 6 7 7 5 7 7 7 8 8 4 4 5 3 4 9 9 5 4 5 3 2 3 6 9 9 7 4 1 10 18 15 13 14 16 17 16 14 13 11 10
15 16 17 14 12 14 19 20 20 22 22 21 22 23 24 22 20 17 13 10 6 6 11 14 10 8 13 13 9 6 5 10 13 18 17 14 15 17 20 20 16 17 18 16 14 11 10 8 4 4 5 7 10 9 7 5 5 3 4 4 2 3 6 5 3 1 3 2 3 4 6 8 4 4 6 10 13 14 13 13 14 17 17 16 15 13 11 11
13 12 12 11 13 17 20 20 20 22 22 22 23 24 24 22 21 20 17 14 10 9 12 14 11 6 7 11 13 10 7 5 8 16 19 16 13 11 13 16 18 21 20 19 18 14 13 10 4 4 5 5 9 11 9 7 7 5 1 4 5 3 4 3 2 1 2 0 3 2 3 2 3 1 5 12 17 17 16 16 15 16 15 14 15 14 14 13
11 7 6 7 14 17 18 19 20 22 22 23 24 24 23 22 20 18 17 16 13 12 13 14 12 7 4 7 13 12 10 7 8 15 19 18 18 15 9 5 9 17 18 20 22 16 13 11 5 7 8 4 5 6 3 2 2 4 3 3 4 3 3 3 2 4 4 2 2 2 1 5 8 6 2 8 17 19 17 19 17 15 14 15 16 15 15 16
7 3 6 9 13 15 16 18 20 22 22 23 25 23 21 20 19 18 16 15 13 12 12 14 13 9 5 2 4 5 8 10 11 14 13 11 13 14 11 5 4 11 11 13 20 17 15 14 8 8 11 6 3 4 6 9 7 1 1 2 3 3 3 2 2 5 5 3 3 1 1 3 8 9 6 0 10 16 16 15 15 15 14 15 16 16 16 17
3 8 11 12 14 15 16 18 20 21 20 20 21 21 20 18 18 17 15 13 12 11 11 14 14 12 8 6 5 2 4 9 14 15 11 8 8 6 7 9 10 11 7 7 15 15 13 14 12 10 11 8 2 2 2 7 9 5 3 4 1 3 4 3 2 4 4 3 4 4 2 1 6 7 5 3 3 7 10 12 16 17 17 16 16 15 15 15
6 11 15 15 15 16 15 15 15 14 12 13 14 15 16 17 16 15 11 9 9 10 11 12 12 12 12 11 9 5 3 6 12 16 16 14 11 5 3 5 9 15 16 12 12 12 11 11 11 11 11 11 8 5 5 7 7 2 6 9 5 1 3 5 4 3 3 2 5 7 3 3 5 3 1 2 3 4 5 9 13 14 14 15 14 13 14 15
8 12 16 20 20 17 13 10 10 9 8 9 8 8 9 11 13 12 8 7 8 11 11 10 10 8 7 9 9 7 6 6 9 14 15 13 14 14 11 6 4 10 17 17 13 11 10 9 9 10 11 15 13 7 7 9 6 3 11 13 9 5 2 5 6 4 2 3 4 5 3 5 7 3 2 5 5 4 4 5 9 12 13 13 13 14 15 17
8 14 17 21 23 21 16 11 9 8 9 9 8 8 8 10 10 10 9 10 13 16 16 15 12 7 3 4 8 7 6 7 7 7 10 11 12 14 18 17 12 8 10 14 14 13 10 9 8 5 5 9 11 7 6 9 6 3 8 10 11 9 5 3 5 4 4 5 4 2 3 6 9 7 0 6 8 7 6 7 10 12 11 12 14 15 16 16
8 14 16 17 19 20 15 9 6 6 8 9 12 13 13 14 13 11 10 11 10 10 12 13 10 7 4 3 6 7 5 6 4 1 4 11 10 9 15 22 21 16 10 8 11 12 10 8 8 6 2 1 3 2 3 5 4 2 2 5 10 11 9 5 4 4 5 4 3 5 8 8 6 4 4 2 5 6 7 7 8 9 10 11 14 15 16 16
3 9 11 11 14 16 11 6 4 6 5 6 9 10 9 11 12 11 11 10 7 6 8 12 12 10 8 5 5 7 6 5 3 3 6 9 9 5 8 14 16 16 15 11 9 10 10 9 8 8 7 5 5 4 3 7 8 7 8 9 11 12 12 9 4 5 5 2 3 7 8 6 4 2 6 7 5 3 1 3 4 6 8 11 13 14 15 15
4 1 4 4 7 10 12 10 6 4 2 2 1 0 1 4 8 8 6 4 6 6 4 7 12 13 10 8 6 6 5 4 4 3 8 8 6 4 3 7 11 13 14 14 12 9 9 9 9 9 8 7 7 8 10 11 10 10 11 12 11 9 9 9 5 4 3 2 5 6 3 3 4 2 3 5 5 5 4 3 4 6 8 9 11 12 14 16
4 3 1 4 5 4 1 5 5 5 3 4 5 4 3 1 4 5 4 2 6 10 5 2 6 7 7 7 8 6 4 4 5 5 10 10 7 8 9 10 11 11 13 16 14 12 10 8 9 10 10 10 10 11 12 15 13 10 9 9 10 8 7 8 4 2 2 1 8 6 2 6 10 7 4 5 7 10 11 10 9 9 9 10 10 11 14 16
5 3 5 8 8 8 9 8 3 4 3 5 7 6 7 6 3 3 3 3 3 7 7 4 0 2 0 3 7 7 5 5 6 8 11 12 11 12 12 9 8 9 10 12 12 12 11 9 10 12 11 11 13 13 12 15 15 11 7 7 8 7 5 4 3 2 3 2 12 9 5 9 13 9 7 7 9 12 13 14 14 13 12 12 12 11 13 15
9 11 10 9 9 7 6 8 5 4 5 6 8 8 9 11 8 4 0 1 2 3 4 4 1 3 3 1 3 7 7 7 7 9 11 12 11 12 10 7 6 6 6 6 7 7 8 9 10 11 10 10 11 12 11 12 12 7 5 5 5 3 1 2 3 3 1 8 15 12 9 11 12 8 6 6 8 11 13 14 16 16 17 17 16 16 16 15
10 12 9 6 8 9 6 4 2 4 5 9 11 7 7 10 11 7 5 6 4 2 2 4 5 5 5 3 1 4 7 9 9 9 11 14 13 12 10 8 8 7 6 7 7 5 7 10 11 10 9 8 8 10 10 11 10 6 5 3 4 3 2 1 2 2 5 12 15 11 11 13 11 9 9 9 10 12 13 14 15 16 17 18 19 19 18 18
8 10 8 4 6 8 8 4 1 2 8 12 10 6 4 6 6 4 5 6 4 1 1 3 7 9 10 8 4 5 9 10 10 9 9 13 16 14 12 11 9 8 8 8 7 7 8 10 11 10 8 6 7 8 9 10 8 5 4 4 5 3 1 1 4 4 7 10 10 9 11 13 10 10 11 11 12 13 14 15 15 15 16 17 18 19 19 19
Wind_Direction
295 292 289 287 284 281 278 275 273 271 269 267 266 267 266 267 266 268 269 271 274 276 278 278 278 277 277 275 273 272 269 268 266 262 259 255 253 248 243 235 227 221 215 217 213 210 213 209 203 198 199 197 195 201 208 206 189 182 188 202 210 206 203 201 212 225 264 293 328 322 191 191 225 120 150 224 214 283 293 280 277 271 237 232 230 224 237 255
297 294 292 289 285 282 279 275 272 270 268 266 265 264 264 265 265 266 268 270 273 275 276 276 277 278 276 275 273 272 270 271 267 263 260 251 247 240 234 231 224 216 211 212 207 204 205 200 199 199 202 197 193 200 206 202 193 193 198 208 215 206 206 215 233 250 285 305 321 301 237 230 221 152 241 248 287 268 268 270 279 278 243 231 232 234 243 248
298 297 294 290 286 282 278 275 271 268 266 264 262 261 261 262 263 264 266 269 272 274 274 274 278 277 275 275 274 273 275 275 269 265 259 249 247 239 232 230 226 218 210 208 203 198 195 192 195 194 195 192 191 199 198 194 195 203 208 217 225 218 222 228 242 255 297 319 314 265 247 235 219 103 288 265 264 244 245 257 269 278 268 249 239 238 247 255
303 300 297 292 287 282 277 273 268 266 263 261 260 259 258 259 260 262 264 268 270 272 273 274 277 276 276 276 275 278 282 278 270 267 260 249 242 236 230 226 224 216 207 206 200 195 193 192 195 193 189 183 186 194 191 189 194 204 217 228 238 252 254 233 233 264 302 310 291 264 244 221 215 226 287 271 252 236 250 270 268 273 277 262 248 248 252 257
315 309 303 297 291 283 277 271 267 264 261 260 258 256 256 257 258 260 263 265 267 269 271 275 276 275 276 276 277 281 281 271 260 258 259 250 236 227 223 220 219 211 206 203 196 196 194 189 192 195 189 179 182 188 187 186 189 204 219 233 243 264 270 231 187 280 301 296 279 276 259 227 226 236 250 247 245 251 268 279 272 272 281 273 262 257 247 236
329 323 316 308 298 289 280 273 269 264 261 259 256 254 253 253 255 257 260 262 263 266 271 275 275 275 276 275 278 278 264 242 229 238 248 249 240 226 217 213 212 209 207 202 195 195 192 189 192 194 187 179 182 184 181 178 191 215 220 230 246 273 275 232 224 291 298 295 278 273 267 261 259 251 240 232 243 255 264 274 270 275 279 265 266 254 238 225
332 332 329 322 310 298 287 278 271 266 262 258 254 252 249 250 252 254 257 258 262 266 271 274 275 276 276 276 275 269 252 233 225 238 246 248 246 233 219 208 206 206 203 198 194 194 191 191 193 194 186 182 186 182 175 176 198 229 228 230 252 270 270 257 277 284 277 280 281 276 273 270 274 276 257 242 247 244 242 256 259 272 242 225 249 240 237 241
327 329 331 329 321 310 296 284 275 268 261 256 253 250 247 248 250 253 254 257 261 264 270 273 276 277 277 276 268 263 253 245 242 242 243 244 241 230 215 204 201 199 195 192 190 190 190 193 198 201 194 182 184 177 171 187 210 233 241 248 262 264 267 272 274 267 261 273 283 283 281 277 277 282 270 259 265 245 234 243 249 257 191 183 222 232 244 242
321 322 325 326 325 318 303 289 279 269 261 256 252 248 247 248 250 252 252 256 260 263 268 272 276 278 276 272 265 258 248 260 259 249 246 243 236 225 209 196 192 189 187 183 182 184 189 194 193 191 180 166 181 175 177 215 225 226 240 261 270 264 266 274 272 266 261 267 277 281 287 287 273 264 265 263 268 266 255 246 241 235 176 173 219 242 246 229
316 317 317 320 322 320 310 295 282 271 263 255 252 250 248 247 248 250 251 255 258 262 267 270 274 275 274 270 260 249 229 270 261 243 243 235 224 212 198 187 182 180 181 177 174 175 174 171 160 155 171 183 206 193 201 243 236 228 248 268 274 267 261 264 269 267 259 260 271 278 285 279 235 234 263 269 256 254 244 231 224 208 181 193 227 233 230 226
312 311 312 315 317 318 314 302 287 274 264 256 254 252 248 247 246 248 251 255 259 262 265 267 271 271 271 264 252 245 215 226 250 228 217 214 207 194 176 170 173 171 171 166 161 158 149 149 152 173 194 215 231 221 227 241 243 248 259 267 269 257 247 248 256 261 258 263 270 275 272 245 226 243 264 269 238 217 214 210 209 212 213 245 242 229 235 240
311 311 310 311 312 314 314 307 296 281 268 259 255 251 249 247 246 249 250 254 259 262 264 267 269 268 269 258 252 260 223 163 198 223 179 178 189 176 154 151 160 157 154 153 154 157 155 161 187 207 207 231 234 230 223 223 243 251 254 259 253 245 240 239 248 256 256 260 261 265 266 248 245 252 262 260 214 196 209 217 230 239 226 233 242 246 264 263
319 316 312 311 309 309 310 308 302 290 278 266 258 253 250 247 247 250 251 255 258 260 264 265 267 270 267 250 229 273 247 143 146 179 169 157 170 169 152 146 152 149 149 153 157 163 170 178 207 220 224 233 230 231 214 208 238 244 249 254 250 254 249 242 245 247 248 249 241 246 265 255 239 244 260 248 209 196 208 220 233 229 213 216 225 256 286 276
335 329 323 318 311 307 305 305 305 299 290 278 267 258 252 249 249 250 252 256 257 260 264 265 271 273 265 239 203 267 257 146 150 153 153 155 167 175 162 157 159 158 158 161 164 171 174 181 227 232 227 225 224 226 208 206 230 234 246 241 242 258 260 257 250 243 245 245 235 238 256 253 232 235 251 231 213 213 208 208 218 209 205 209 207 243 281 270
343 340 335 329 321 314 306 302 300 299 299 295 284 269 256 252 249 249 252 255 259 261 264 267 271 275 268 243 253 275 265 171 157 140 137 152 167 181 171 165 168 168 167 169 175 179 175 195 234 227 218 215 218 221 214 219 221 216 246 243 239 255 267 280 240 234 239 236 230 230 242 249 229 218 235 225 222 225 209 206 214 205 201 195 191 245 262 241
335 335 334 332 331 325 318 307 295 293 301 304 298 282 263 254 250 250 249 249 257 260 262 267 264 262 258 224 341 312 296 235 161 132 133 145 149 166 168 173 178 177 179 180 181 184 193 220 229 226 215 208 212 214 214 226 220 210 240 259 254 260 273 287 247 231 233 227 220 220 232 243 229 221 230 221 217 219 216 217 219 208 197 192 194 255 256 244
325 324 325 326 328 330 332 322 300 290 297 302 287 270 258 254 250 249 248 248 252 256 256 252 239 216 139 83 57 314 282 239 161 128 143 150 147 150 148 158 182 188 190 191 185 185 204 221 230 230 212 203 211 214 220 232 223 210 233 268 275 276 275 280 282 256 235 236 226 223 228 230 240 255 212 203 206 213 220 221 214 208 199 193 200 242 247 235
322 319 318 320 323 329 334 332 318 293 282 270 203 153 146 184 223 230 238 244 243 246 248 238 218 193 139 89 87 102 222 182 165 156 158 162 162 150 129 120 151 173 177 186 188 178 184 202 224 218 198 195 201 207 221 219 211 222 262 291 299 299 280 280 287 269 245 239 227 227 229 225 243 222 180 188 202 210 219 216 205 207 202 190 199 229 226 216
323 320 317 316 319 325 331 337 332 303 249 195 175 166 181 208 234 230 226 232 231 233 237 230 203 184 154 110 99 73 27 126 159 179 175 177 179 157 135 130 137 146 161 167 161 150 153 186 204 189 183 190 197 206 218 213 227 262 281 291 295 296 292 299 293 264 246 231 220 224 225 224 231 187 177 187 202 209 221 218 206 206 202 195 205 217 206 205
324 322 319 316 317 322 331 341 341 329 192 187 187 190 208 240 270 269 259 244 233 223 222 217 191 173 150 129 122 100 20 86 146 178 183 179 175 160 146 144 148 168 177 160 156 150 187 226 214 187 180 185 195 205 224 239 263 275 277 280 283 283 291 325 307 240 210 209 214 217 217 222 208 182 183 189 198 212 221 215 211 207 202 204 213 210 201 204
320 322 319 316 316 319 330 342 349 5 175 196 211 223 250 284 289 295 289 260 238 227 221 213 193 177 163 155 154 147 142 300 193 170 182 179 170 168 161 162 175 184 170 156 192 265 260 254 218 187 182 182 188 205 235 247 254 261 268 275 283 282 290 342 340 219 192 195 206 208 213 221 199 186 191 193 197 211 218 214 212 205 204 208 209 206 202 199
313 316 315 314 314 314 321 333 341 344 189 207 234 248 278 296 296 305 304 270 231 227 224 213 202 191 180 175 173 164 163 204 262 199 191 190 179 180 182 189 193 180 171 193 226 245 253 243 188 178 188 203 210 215 227 234 246 261 279 283 285 289 295 344 66 194 195 198 203 205 212 213 192 186 194 200 205 210 215 223 221 207 201 199 198 199 198 197
302 306 308 307 306 307 307 313 322 304 245 216 241 252 268 284 292 303 305 292 250 228 231 220 209 195 183 178 178 180 175 187 237 236 200 197 181 184 192 188 188 179 185 205 213 225 233 187 137 170 211 229 230 219 229 244 257 269 286 288 284 293 305 325 93 159 187 196 200 205 214 210 199 201 190 192 210 212 213 232 232 211 199 192 189 192 196 202
292 294 298 299 297 299 293 292 294 253 227 218 235 251 261 273 290 297 295 296 279 235 242 230 209 191 179 172 178 191 189 190 221 226 205 201 175 182 192 179 187 200 194 200 210 225 226 204 340 276 267 252 241 233 239 247 258 270 282 285 283 289 303 305 324 92 180 198 209 216 224 221 219 229 218 161 200 213 220 232 225 208 201 203 202 199 196 199
285 285 287 290 289 287 280 276 253 219 225 233 245 263 273 272 290 310 310 309 306 250 245 227 203 187 174 173 183 193 203 209 219 221 217 203 170 182 196 186 201 208 198 202 222 243 252 269 279 268 265 258 239 229 236 250 264 274 278 279 276 281 302 283 274 289 290 270 254 260 266 237 236 239 225 189 201 216 224 228 223 216 210 209 209 200 185 179
278 278 279 281 280 279 272 265 246 232 230 240 257 276 289 288 305 333 326 312 310 268 233 217 199 190 185 193 187 177 209 235 236 235 233 217 207 221 207 201 215 213 208 223 243 257 270 281 270 259 254 235 216 215 230 251 257 266 278 269 241 269 301 291 273 264 277 284 228 235 275 255 257 251 236 249 268 225 224 228 227 227 222 213 205 188 177 188
274 272 273 273 274 273 265 260 251 242 229 236 257 275 298 318 329 337 326 303 306 301 215 207 193 197 202 209 197 178 203 234 225 225 230 223 222 230 216 210 220 227 225 240 252 251 271 287 256 237 228 207 205 216 231 244 247 264 276 260 242 277 292 294 312 310 290 278 229 223 245 258 268 260 259 282 282 245 223 222 220 223 225 215 200 184 188 217
269 267 268 267 268 267 262 260 251 243 234 236 254 268 288 313 315 320 339 311 307 36 197 201 191 199 205 207 203 193 193 191 185 207 221 221 219 221 221 217 222 236 235 241 253 245 265 292 240 214 211 210 224 238 242 244 249 265 272 253 248 272 288 285 270 330 347 287 246 237 231 240 262 256 271 292 277 276 222 213 215 223 225 212 199 199 214 225
266 264 264 262 261 261 261 261 253 250 248 248 259 265 268 288 293 284 342 336 266 251 222 215 203 202 199 200 204 205 202 200 215 220 207 218 224 219 224 229 236 246 240 243 258 254 261 280 240 220 225 232 244 257 261 253 246 252 258 252 248 251 270 284 261 276 340 306 262 259 235 228 256 254 263 286 283 285 259 229 227 227 222 209 204 217 219 208
266 262 260 258 258 256 256 260 257 253 256 258 263 261 254 256 242 219 227 239 242 243 236 237 223 207 198 199 203 210 217 219 235 236 199 213 225 218 225 237 244 249 241 241 251 252 263 274 240 228 238 245 246 255 276 271 252 249 251 252 253 258 269 274 270 280 318 316 264 267 237 223 243 265 263 280 290 287 282 277 242 215 210 207 208 214 205 192
269 263 258 255 254 252 250 255 258 252 251 252 248 245 241 231 214 195 179 243 251 257 240 234 224 210 213 218 206 207 217 223 231 231 205 201 211 212 221 232 237 244 243 244 247 248 265 271 235 227 238 246 244 248 264 268 260 259 251 246 247 263 286 278 276 279 288 262 226 296 293 239 222 266 271 269 283 293 282 266 233 204 201 206 206 201 189 182
268 263 259 254 250 250 246 246 252 250 244 240 232 231 227 214 211 211 207 238 256 239 227 230 234 220 224 235 220 208 213 222 225 226 215 201 203 210 220 232 238 240 240 246 252 252 261 258 239 238 242 241 248 255 257 246 249 256 226 212 208 133 31 294 284 283 214 203 123 341 321 287 233 251 273 266 275 294 264 220 210 204 205 215 213 198 187 183
266 262 258 253 250 249 241 237 245 248 241 230 223 223 214 200 224 227 224 227 191 146 209 252 272 246 227 228 225 217 219 224 218 212 211 207 210 218 227 242 243 235 230 238 248 251 254 252 243 240 238 236 243 251 246 228 230 236 204 181 166 123 79 260 269 319 263 220 82 0 327 298 274 267 264 268 269 268 223 194 198 209 215 221 210 189 181 184
266 262 257 253 250 246 238 234 237 241 238 227 221 219 209 206 228 231 228 228 219 197 21 314 285 277 249 236 230 221 220 224 218 212 212 212 218 229 236 245 242 231 228 227 236 243 244 252 246 233 237 242 234 235 243 223 212 224 225 208 207 190 166 202 223 198 217 215 159 347 328 296 336 316 272 282 261 219 208 199 199 207 210 207 189 174 174 181
267 262 257 252 247 240 234 231 230 232 232 226 221 218 214 218 227 233 235 232 234 258 310 315 294 276 263 253 245 231 224 225 223 222 223 220 226 240 241 242 239 228 226 225 233 243 240 246 242 224 236 249 230 219 224 213 200 214 248 231 232 227 215 209 201 194 181 156 271 277 264 259 293 305 324 323 208 181 188 200 194 192 192 191 181 172 173 178
270 265 259 251 242 233 230 230 228 227 227 223 221 222 223 226 231 237 240 228 240 292 299 306 299 261 242 246 262 246 225 226 226 223 225 224 229 242 243 243 240 224 220 221 222 214 222 238 239 233 234 222 212 203 191 195 194 190 205 211 225 249 231 208 187 186 145 104 285 239 250 264 267 263 266 174 166 171 186 206 203 199 196 197 198 189 185 185
273 270 264 254 234 224 227 230 227 223 222 220 221 227 231 234 236 237 239 228 230 296 304 312 313 244 218 226 259 297 238 220 217 215 219 224 232 240 241 243 241 229 222 222 221 211 219 241 253 254 236 204 205 202 187 195 206 185 150 156 166 188 199 174 133 120 97 83 253 221 245 261 247 228 216 194 192 198 210 213 209 209 206 205 211 213 216 218
273 272 274 252 218 217 223 224 223 219 218 220 224 231 234 235 237 238 244 246 255 287 296 303 303 257 216 222 242 285 297 242 215 215 220 225 228 233 240 241 237 234 231 227 223 213 218 237 234 212 222 200 198 197 190 200 217 231 210 184 200 188 174 149 101 140 117 176 256 255 260 302 35 351 229 214 209 208 219 228 220 215 219 225 232 237 240 246
278 270 269 226 209 220 226 220 217 214 215 221 225 231 235 236 237 239 244 251 264 285 294 302 296 260 234 239 245 265 277 260 232 221 219 220 221 216 220 244 224 218 221 223 219 206 208 226 207 190 203 175 166 175 139 67 203 221 245 228 234 234 205 213 175 157 144 163 233 316 27 56 35 13 317 226 207 199 216 235 231 231 245 252 253 255 256 263
284 207 180 185 194 210 220 217 212 210 214 223 227 232 237 240 239 237 242 249 258 275 289 297 287 253 226 226 223 244 256 251 243 233 223 211 210 208 211 226 187 179 178 202 212 202 200 216 218 204 203 185 115 96 59 19 12 20 294 302 270 229 192 209 200 157 132 141 161 117 26 58 38 27 28 279 205 199 211 228 236 244 252 257 262 264 264 268
234 165 165 173 183 192 202 210 211 210 216 225 233 239 242 247 247 241 241 246 251 264 278 283 277 264 260 245 212 203 250 253 251 253 251 220 191 170 197 220 222 216 213 207 206 198 190 203 217 223 219 218 243 35 17 345 350 352 9 31 12 231 190 162 196 178 150 153 152 142 195 59 42 28 35 62 162 192 210 233 248 255 255 256 258 256 255 255
182 165 165 172 185 191 197 205 205 209 224 235 243 250 251 255 255 248 243 235 244 270 278 274 274 275 277 262 242 234 246 253 250 250 256 251 235 211 165 201 227 236 248 245 214 204 200 201 214 229 237 239 250 295 303 313 332 12 80 68 60 277 198 163 168 178 169 164 148 142 139 78 51 3 276 192 196 185 198 227 242 253 254 248 242 243 248 250
175 162 168 182 190 187 190 202 202 216 252 261 260 259 261 265 257 252 260 254 268 289 278 265 274 281 282 262 238 229 230 238 248 244 243 248 247 232 209 205 239 230 234 239 228 218 214 207 216 235 248 249 249 269 283 278 280 108 84 61 53 63 134 183 179 175 143 98 128 147 136 87 69 37 239 216 225 207 186 220 244 255 255 246 244 249 251 251
184 164 167 181 184 180 185 197 209 239 268 278 278 272 275 282 270 267 293 299 292 287 269 259 263 257 267 260 224 223 235 221 226 241 226 222 242 234 212 215 244 245 220 223 223 219 213 201 206 227 268 272 271 284 280 264 262 102 73 38 35 51 63 134 153 152 122 96 91 127 143 102 75 49 85 215 231 233 220 231 248 257 256 246 241 240 236 234
200 177 174 178 180 185 194 195 201 244 268 272 272 273 278 282 276 271 289 299 294 276 251 241 237 217 227 263 206 201 207 193 196 346 187 200 215 224 214 221 241 256 252 226 211 212 214 205 203 203 190 253 267 278 290 282 293 338 12 4 12 11 7 26 63 79 108 114 81 109 132 128 104 46 8 293 258 247 229 235 249 258 259 248 236 226 219 216
239 191 192 195 189 191 200 197 194 226 257 277 275 275 283 286 279 266 265 273 271 257 234 220 215 213 224 242 207 190 179 165 178 63 106 163 186 203 225 226 232 247 255 249 226 214 215 212 212 220 220 210 197 194 250 295 308 311 305 322 344 348 348 351 11 67 88 95 81 115 138 147 165 281 328 332 322 311 239 235 238 238 248 252 246 237 231 227
315 202 178 198 198 195 203 205 190 189 230 351 16 289 301 287 272 249 233 237 230 234 243 221 225 229 226 227 218 197 178 172 186 120 104 132 183 193 182 200 210 226 238 242 240 230 223 217 213 224 232 226 219 225 244 266 294 316 313 316 330 340 344 340 349 60 61 34 82 98 134 149 148 197 270 271 271 263 238 220 218 229 246 257 258 259 263 266
333 317 40 47 31 28 167 187 179 174 150 90 101 123 113 171 231 195 157 162 207 214 225 215 223 228 213 210 214 202 192 199 189 133 114 123 149 164 162 174 191 203 218 229 234 233 234 233 227 230 232 229 233 239 242 249 268 299 310 311 321 326 330 335 351 63 319 98 118 122 145 132 126 116 114 160 189 205 214 220 227 236 246 252 254 263 273 280
36 40 56 62 57 49 63 85 116 207 175 102 111 116 88 80 104 146 189 243 196 194 217 223 64 352 335 199 214 216 207 177 147 132 135 128 126 148 162 165 171 188 214 228 232 235 236 232 231 232 226 227 237 242 243 246 252 273 308 322 322 326 340 359 56 107 286 173 143 159 182 142 135 125 108 129 160 181 200 213 218 216 215 223 231 238 252 266
85 90 83 82 79 68 85 99 102 197 184 111 95 88 75 74 72 58 282 226 118 126 204 219 217 354 346 356 225 219 206 175 146 139 152 153 144 151 156 148 152 175 200 209 214 227 223 209 213 222 218 219 230 233 236 240 243 265 326 333 312 316 17 79 98 101 156 156 153 169 176 146 144 154 149 157 176 185 195 203 206 202 196 200 208 214 227 239
89 88 82 96 86 64 64 95 131 189 153 92 79 72 59 67 68 56 66 81 83 94 207 229 241 257 266 296 287 188 180 177 172 159 161 169 171 170 167 160 161 168 180 194 201 206 205 197 193 198 203 205 214 222 224 228 239 274 320 333 337 333 327 218 190 153 136 147 154 164 154 136 140 171 188 201 204 199 198 198 201 203 199 199 204 208 217 221
79 76 58 70 93 76 57 43 17 128 81 69 76 86 56 58 77 102 97 76 69 100 185 239 254 256 250 249 236 180 170 177 184 181 176 176 178 183 188 187 186 185 183 186 186 185 200 202 194 196 201 198 214 233 237 239 251 285 315 356 34 60 142 162 174 163 147 157 170 176 159 142 145 179 202 218 221 216 212 206 206 210 208 208 211 214 219 221
Height
3105 3105 3104 3104 3104 3103 3103 3103 3103 3103 3102 3102 3102 3102 3102 3101 3101 3101 3100 3100 3100 3100 3099 3099 3098 3098 3098 3098 3098 3098 3098 3098 3098 3098 3098 3099 3099 3099 3100 3101 3102 3103 3104 3105 3107 3109 3110 3112 3113 3114 3115 3116 3118 3120 3121 3122 3122 3121 3122 3122 3122 3122 3122 3123 3125 3126 3127 3127 3128 3130 3131 3130 3130 3130 3128 3127 3128 3128 3128 3128 3128 3129 3130 3130 3131 3132 3133 3134
3104 3103 3103 3102 3102 3102 3101 3101 3101 3101 3100 3100 3100 3100 3100 3099 3099 3099 3099 3098 3098 3098 3098 3097 3097 3097 3097 3097 3096 3096 3096 3097 3097 3096 3097 3097 3097 3098 3098 3099 3100 3101 3102 3104 3105 3107 3109 3111 3112 3113 3114 3116 3117 3119 3120 3121 3121 3121 3121 3121 3120 3120 3122 3123 3125 3126 3127 3127 3127 3129 3130 3130 3129 3129 3128 3126 3127 3127 3127 3127 3128 3129 3129 3130 3131 3132 3132 3133
3102 3101 3101 3101 3100 3100 3099 3099 3099 3099 3098 3098 3098 3098 3098 3097 3097 3097 3097 3097 3097 3097 3096 3096 3096 3096 3095 3095 3095 3095 3095 3095 3095 3095 3095 3096 3096 3096 3097 3097 3098 3099 3101 3102 3103 3105 3107 3108 3109 3110 3112 3114 3116 3117 3118 3119 3120 3120 3120 3119 3119 3121 3122 3123 3125 3126 3126 3126 3127 3128 3129 3129 3128 3128 3127 3125 3126 3127 3127 3127 3127 3128 3128 3129 3129 3131 3131 3132
3101 3100 3099 3099 3098 3098 3098 3097 3097 3097 3097 3097 3096 3096 3096 3096 3096 3095 3095 3095 3095 3095 3094 3094 3094 3094 3094 3094 3094 3094 3094 3094 3094 3094 3094 3094 3094 3094 3095 3096 3097 3098 3099 3100 3102 3103 3104 3105 3107 3108 3109 3112 3114 3116 3117 3117 3118 3119 3119 3118 3119 3121 3121 3122 3124 3125 3125 3126 3127 3127 3128 3128 3127 3127 3126 3124 3124 3125 3126 3126 3126 3127 3128 3128 3129 3130 3130 3130
3100 3099 3098 3097 3097 3096 3096 3096 3095 3095 3095 3095 3095 3095 3094 3094 3094 3094 3094 3094 3094 3093 3093 3093 3093 3093 3092 3093 3093 3093 3093 3093 3093 3092 3093 3093 3093 3093 3094 3094 3095 3096 3097 3098 3100 3101 3102 3104 3106 3107 3108 3110 3112 3113 3115 3116 3117 3117 3117 3117 3119 3120 3120 3121 3122 3123 3124 3125 3125 3126 3127 3126 3126 3126 3126 3125 3123 3124 3125 3125 3125 3126 3127 3128 3129 3129 3129 3130
3099 3098 3097 3096 3096 3095 3094 3094 3094 3093 3093 3093 3093 3093 3093 3093 3093 3093 3093 3093 3093 3092 3092 3092 3092 3091 3091 3091 3092 3092 3092 3092 3091 3091 3092 3091 3091 3092 3092 3093 3094 3095 3096 3097 3099 3100 3102 3103 3105 3106 3107 3109 3109 3111 3113 3115 3116 3115 3116 3117 3117 3119 3119 3120 3121 3122 3123 3124 3124 3124 3124 3125 3125 3125 3125 3124 3123 3123 3124 3124 3124 3125 3127 3127 3127 3128 3129 3129
3098 3097 3096 3095 3095 3094 3093 3093 3092 3092 3092 3092 3092 3092 3092 3092 3092 3092 3092 3092 3091 3091 3091 3091 3090 3090 3090 3090 3091 3091 3091 3091 3091 3091 3091 3091 3090 3091 3091 3092 3093 3094 3095 3096 3098 3100 3101 3102 3104 3105 3107 3108 3109 3110 3112 3114 3115 3114 3115 3115 3116 3117 3118 3118 3119 3121 3122 3122 3122 3122 3122 3123 3124 3124 3122 3122 3122 3123 3123 3122 3123 3124 3126 3127 3127 3128 3128 3129
3097 3096 3096 3095 3094 3093 3092 3092 3091 3091 3091 3091 3091 3091 3091 3091 3091 3091 3091 3090 3090 3090 3090 3090 3089 3089 3089 3089 3089 3090 3090 3090 3090 3090 3090 3090 3090 3090 3090 3091 3092 3093 3094 3096 3097 3099 3100 3102 3104 3105 3106 3107 3108 3110 3112 3113 3114 3114 3114 3114 3115 3116 3116 3117 3118 3119 3120 3120 3120 3120 3120 3121 3122 3121 3120 3120 3121 3122 3122 3122 3123 3124 3125 3127 3127 3128 3128 3128
3096 3096 3095 3094 3093 3092 3092 3091 3090 3090 3090 3090 3090 3090 3090 3090 3090 3090 3090 3089 3089 3089 3089 3088 3088 3088 3088 3088 3088 3088 3089 3089 3089 3088 3089 3089 3089 3089 3089 3090 3091 3092 3093 3095 3096 3098 3100 3103 3105 3106 3106 3108 3108 3109 3111 3111 3112 3113 3113 3114 3114 3114 3115 3116 3117 3118 3118 3118 3118 3118 3118 3119 3120 3119 3118 3119 3120 3121 3121 3121 3122 3123 3125 3126 3127 3127 3127 3127
3096 3095 3094 3093 3092 3092 3091 3090 3090 3089 3089 3089 3089 3089 3088 3089 3089 3089 3089 3088 3088 3088 3088 3087 3087 3087 3087 3087 3087 3088 3088 3088 3088 3087 3087 3087 3088 3088 3088 3089 3090 3091 3093 3094 3096 3099 3101 3104 3105 3105 3105 3106 3107 3108 3110 3110 3110 3111 3112 3112 3112 3112 3113 3114 3115 3115 3116 3116 3116 3116 3116 3117 3118 3117 3116 3118 3119 3120 3120 3121 3122 3123 3124 3125 3126 3126 3126 3125
3095 3094 3093 3092 3092 3091 3090 3089 3089 3088 3088 3088 3088 3087 3087 3088 3088 3088 3087 3087 3087 3087 3087 3087 3086 3086 3086 3086 3086 3087 3087 3087 3087 3086 3086 3086 3087 3087 3088 3089 3090 3091 3093 3094 3097 3099 3101 3103 3104 3104 3104 3104 3105 3106 3108 3109 3109 3110 3110 3110 3110 3110 3110 3112 3112 3113 3114 3114 3115 3115 3115 3115 3115 3115 3115 3117 3118 3119 3120 3121 3122 3122 3123 3124 3125 3125 3125 3125
3094 3093 3092 3092 3091 3090 3089 3089 3088 3087 3087 3087 3086 3086 3086 3086 3087 3087 3086 3086 3086 3086 3086 3086 3086 3086 3086 3086 3086 3086 3086 3086 3085 3085 3085 3086 3086 3086 3087 3088 3090 3091 3093 3095 3097 3098 3100 3101 3101 3101 3102 3103 3104 3105 3106 3107 3107 3108 3108 3108 3108 3108 3108 3109 3110 3112 3112 3112 3114 3115 3114 3113 3113 3114 3114 3116 3117 3118 3119 3120 3121 3122 3123 3124 3124 3124 3124 3125
3093 3092 3091 3091 3090 3089 3089 3088 3087 3086 3086 3086 3085 3085 3085 3085 3085 3085 3085 3085 3085 3085 3085 3085 3085 3085 3085 3085 3085 3085 3085 3085 3085 3085 3085 3085 3086 3086 3087 3088 3090 3091 3092 3094 3095 3097 3098 3098 3099 3099 3100 3102 3103 3104 3104 3106 3106 3107 3107 3106 3107 3106 3105 3107 3109 3110 3111 3111 3113 3114 3113 3111 3112 3114 3114 3115 3116 3117 3118 3119 3120 3121 3122 3123 3124 3124 3124 3124
3092 3092 3091 3090 3089 3089 3088 3087 3086 3086 3085 3085 3084 3084 3084 3084 3084 3084 3084 3084 3084 3084 3084 3084 3084 3084 3084 3085 3085 3084 3085 3085 3085 3085 3085 3085 3086 3086 3087 3088 3089 3090 3092 3093 3094 3096 3096 3096 3098 3098 3100 3101 3102 3103 3104 3104 3105 3105 3105 3105 3106 3106 3103 3105 3107 3108 3108 3110 3112 3113 3113 3111 3111 3113 3113 3113 3114 3115 3116 3118 3119 3121 3122 3123 3124 3124 3124 3124
3092 3091 3090 3089 3089 3088 3087 3086 3085 3085 3084 3084 3083 3083 3083 3083 3083 3083 3083 3083 3083 3083 3083 3084 3084 3084 3084 3084 3084 3084 3084 3085 3085 3084 3084 3085 3086 3087 3087 3088 3089 3090 3092 3093 3094 3095 3095 3096 3097 3098 3099 3100 3101 3103 3103 3103 3103 3104 3104 3104 3106 3106 3103 3103 3105 3105 3107 3109 3111 3112 3111 3109 3110 3113 3113 3113 3113 3113 3115 3117 3118 3119 3121 3122 3123 3123 3124 3124
3091 3091 3090 3089 3088 3087 3086 3085 3085 3084 3084 3083 3082 3082 3081 3081 3081 3082 3082 3082 3082 3082 3082 3083 3083 3083 3084 3084 3084 3084 3084 3084 3084 3084 3084 3085 3086 3087 3088 3089 3090 3091 3092 3093 3094 3094 3095 3096 3097 3097 3099 3100 3101 3102 3102 3102 3102 3103 3103 3104 3105 3105 3104 3103 3103 3104 3106 3108 3109 3109 3109 3108 3109 3111 3112 3111 3111 3112 3113 3115 3117 3118 3120 3121 3121 3123 3124 3124
3091 3090 3089 3088 3088 3087 3086 3084 3084 3083 3083 3082 3082 3081 3080 3080 3080 3080 3080 3081 3081 3081 3081 3082 3082 3083 3083 3083 3083 3083 3084 3084 3084 3084 3085 3086 3087 3087 3088 3089 3091 3092 3092 3093 3093 3094 3095 3096 3096 3096 3098 3099 3100 3101 3101 3101 3101 3103 3104 3104 3105 3105 3104 3103 3102 3102 3105 3107 3106 3106 3107 3107 3109 3110 3110 3109 3110 3111 3113 3114 3116 3117 3118 3119 3120 3122 3122 3123
3090 3089 3088 3088 3087 3086 3085 3084 3083 3082 3082 3082 3081 3080 3080 3079 3079 3079 3079 3079 3079 3080 3080 3081 3081 3082 3082 3082 3082 3083 3083 3083 3083 3084 3085 3086 3087 3087 3087 3088 3090 3091 3092 3093 3093 3094 3095 3095 3095 3095 3097 3098 3099 3100 3100 3100 3101 3103 3104 3105 3105 3105 3104 3102 3100 3100 3102 3104 3104 3104 3105 3106 3108 3109 3109 3110 3111 3112 3112 3113 3114 3116 3117 3118 3119 3121 3121 3122
3089 3088 3088 3087 3086 3086 3085 3083 3082 3082 3081 3081 3080 3080 3079 3079 3078 3078 3077 3077 3077 3078 3078 3079 3079 3080 3081 3081 3081 3082 3083 3083 3084 3084 3085 3086 3086 3086 3086 3086 3089 3091 3091 3092 3093 3094 3094 3094 3094 3094 3095 3096 3098 3099 3099 3100 3101 3102 3103 3104 3104 3103 3102 3101 3098 3097 3098 3101 3101 3102 3103 3105 3107 3109 3110 3111 3111 3111 3111 3112 3113 3114 3115 3117 3119 3120 3121 3122
3089 3088 3087 3086 3086 3085 3084 3083 3082 3081 3081 3081 3080 3080 3079 3079 3078 3077 3076 3076 3076 3076 3076 3077 3077 3078 3079 3079 3080 3081 3083 3084 3084 3085 3085 3085 3086 3086 3086 3086 3088 3090 3091 3091 3092 3093 3093 3093 3093 3093 3095 3097 3098 3099 3100 3101 3101 3101 3102 3103 3102 3101 3100 3098 3096 3094 3096 3098 3099 3100 3101 3104 3107 3108 3109 3110 3111 3110 3110 3110 3111 3112 3114 3116 3117 3119 3120 3121
3088 3087 3086 3085 3085 3084 3083 3083 3082 3081 3081 3080 3080 3080 3079 3079 3078 3076 3075 3075 3074 3074 3074 3075 3076 3077 3077 3078 3078 3079 3081 3083 3083 3084 3085 3085 3085 3085 3086 3087 3087 3088 3089 3091 3092 3092 3093 3092 3092 3094 3096 3098 3098 3099 3100 3100 3100 3100 3101 3101 3101 3100 3099 3097 3094 3093 3095 3096 3097 3099 3102 3104 3106 3107 3108 3109 3109 3108 3108 3109 3110 3111 3112 3114 3116 3118 3119 3120
3087 3086 3085 3085 3084 3083 3083 3082 3082 3081 3081 3080 3080 3080 3079 3078 3077 3075 3074 3073 3072 3072 3072 3073 3074 3075 3076 3076 3077 3077 3078 3080 3082 3083 3084 3084 3084 3085 3086 3087 3087 3088 3089 3090 3091 3092 3092 3091 3092 3094 3096 3097 3098 3099 3099 3099 3100 3100 3100 3100 3099 3099 3098 3096 3095 3094 3096 3097 3098 3100 3101 3103 3105 3106 3107 3108 3108 3108 3108 3108 3109 3110 3111 3112 3114 3117 3118 3119
3086 3085 3084 3084 3083 3082 3082 3082 3081 3080 3080 3080 3080 3079 3078 3077 3076 3075 3074 3072 3071 3070 3070 3071 3072 3074 3075 3075 3076 3076 3076 3077 3080 3082 3083 3083 3084 3085 3085 3086 3087 3088 3089 3089 3090 3091 3091 3091 3092 3094 3095 3096 3097 3098 3098 3099 3099 3099 3099 3099 3098 3098 3098 3097 3095 3096 3097 3098 3099 3100 3101 3102 3103 3105 3106 3107 3107 3107 3108 3108 3108 3108 3109 3111 3113 3115 3116 3117
3085 3084 3083 3083 3082 3082 3081 3081 3080 3080 3079 3079 3078 3077 3076 3076 3075 3075 3073 3071 3070 3069 3068 3069 3071 3073 3074 3075 3075 3076 3076 3076 3079 3081 3082 3083 3083 3084 3085 3086 3087 3087 3088 3089 3090 3090 3089 3090 3092 3093 3094 3095 3095 3096 3097 3098 3098 3097 3097 3097 3097 3098 3098 3097 3096 3097 3097 3098 3098 3099 3099 3100 3101 3103 3104 3105 3105 3107 3108 3108 3107 3107 3109 3110 3111 3112 3113 3115
3083 3083 3082 3082 3081 3081 3080 3080 3080 3079 3079 3078 3077 3076 3076 3075 3075 3074 3072 3070 3069 3068 3067 3068 3070 3071 3073 3074 3074 3075 3076 3076 3078 3080 3081 3082 3083 3083 3084 3085 3086 3086 3087 3088 3090 3089 3088 3089 3091 3091 3093 3093 3094 3095 3096 3096 3097 3096 3096 3096 3097 3098 3098 3097 3097 3097 3097 3097 3098 3098 3099 3099 3099 3101 3103 3104 3104 3106 3107 3107 3106 3106 3107 3108 3109 3110 3111 3112
3081 3081 3081 3081 3080 3080 3079 3079 3079 3078 3078 3077 3076 3075 3075 3075 3074 3073 3072 3070 3068 3066 3066 3067 3069 3071 3072 3072 3073 3075 3076 3075 3076 3079 3080 3081 3082 3083 3084 3085 3085 3086 3087 3088 3089 3088 3087 3088 3089 3090 3091 3092 3092 3094 3094 3095 3095 3095 3095 3095 3096 3097 3098 3097 3096 3097 3097 3098 3098 3098 3099 3098 3097 3099 3101 3102 3103 3104 3104 3105 3105 3105 3105 3106 3107 3108 3109 3111
3080 3079 3079 3079 3079 3079 3078 3078 3078 3077 3077 3076 3075 3075 3075 3074 3074 3073 3072 3072 3068 3065 3065 3066 3068 3069 3070 3072 3073 3074 3075 3074 3075 3077 3078 3080 3081 3082 3083 3084 3084 3085 3086 3088 3088 3087 3087 3087 3087 3088 3090 3090 3090 3092 3092 3093 3093 3093 3094 3094 3095 3096 3096 3096 3096 3096 3096 3097 3097 3098 3098 3098 3097 3097 3098 3100 3101 3102 3102 3102 3102 3103 3104 3104 3106 3107 3108 3110
3077 3077 3077 3077 3077 3077 3077 3076 3076 3076 3076 3075 3074 3074 3074 3073 3074 3073 3074 3073 3068 3065 3065 3066 3067 3068 3069 3071 3072 3072 3073 3073 3074 3076 3077 3078 3080 3081 3082 3082 3083 3084 3085 3086 3085 3085 3086 3086 3086 3087 3089 3089 3090 3090 3091 3091 3091 3091 3092 3093 3093 3094 3094 3095 3095 3095 3096 3096 3096 3096 3097 3097 3096 3096 3098 3099 3100 3101 3101 3101 3101 3101 3102 3103 3105 3106 3107 3109
3075 3075 3075 3075 3075 3075 3075 3075 3074 3074 3074 3073 3073 3073 3073 3073 3074 3073 3074 3072 3067 3064 3065 3066 3066 3067 3068 3070 3071 3071 3072 3073 3074 3075 3076 3077 3078 3079 3080 3081 3082 3083 3084 3085 3083 3083 3085 3085 3086 3087 3087 3088 3088 3089 3089 3089 3089 3089 3090 3091 3091 3092 3092 3093 3093 3094 3095 3096 3096 3096 3096 3096 3095 3095 3097 3098 3098 3098 3099 3099 3099 3099 3100 3102 3104 3105 3106 3108
3072 3072 3072 3072 3072 3073 3073 3073 3073 3073 3072 3072 3072 3072 3072 3073 3073 3073 3074 3071 3065 3064 3065 3065 3066 3067 3067 3068 3069 3070 3071 3072 3073 3074 3075 3076 3077 3078 3079 3080 3081 3081 3082 3083 3082 3082 3083 3084 3085 3086 3086 3086 3087 3087 3087 3088 3088 3088 3088 3088 3089 3090 3090 3090 3091 3092 3094 3095 3095 3095 3095 3095 3095 3094 3095 3096 3096 3096 3096 3095 3096 3097 3099 3101 3102 3104 3105 3107
3069 3069 3069 3069 3069 3070 3071 3071 3070 3071 3071 3070 3070 3071 3071 3071 3072 3073 3072 3067 3064 3064 3064 3064 3066 3066 3067 3067 3068 3069 3070 3071 3072 3073 3074 3074 3075 3077 3078 3079 3079 3079 3080 3080 3080 3081 3082 3082 3082 3083 3084 3085 3085 3085 3086 3086 3087 3087 3086 3087 3088 3088 3088 3089 3090 3091 3094 3095 3094 3094 3094 3095 3095 3094 3094 3095 3094 3094 3093 3092 3094 3096 3098 3099 3100 3102 3103 3105
3066 3066 3066 3066 3066 3067 3069 3068 3067 3068 3069 3069 3069 3069 3069 3070 3070 3069 3067 3064 3064 3064 3064 3064 3066 3066 3066 3066 3067 3067 3068 3069 3070 3072 3072 3073 3074 3075 3076 3077 3077 3078 3078 3079 3079 3080 3080 3080 3081 3082 3082 3083 3083 3084 3085 3085 3086 3086 3086 3086 3087 3089 3090 3091 3092 3092 3093 3094 3093 3093 3093 3094 3094 3093 3093 3094 3093 3093 3092 3091 3092 3095 3097 3098 3099 3100 3102 3104
3063 3062 3063 3063 3063 3065 3066 3066 3065 3065 3066 3067 3067 3067 3068 3068 3066 3064 3064 3064 3064 3063 3064 3064 3065 3065 3066 3066 3066 3067 3067 3068 3069 3070 3071 3072 3072 3073 3074 3075 3075 3076 3077 3078 3079 3079 3079 3079 3079 3080 3080 3081 3082 3082 3083 3084 3084 3085 3085 3085 3086 3088 3092 3094 3094 3093 3093 3092 3092 3093 3092 3093 3093 3092 3093 3092 3092 3093 3091 3091 3093 3095 3097 3098 3099 3100 3101 3102
3059 3059 3059 3060 3061 3062 3063 3063 3062 3063 3063 3064 3065 3065 3066 3065 3063 3061 3062 3063 3063 3063 3064 3064 3063 3063 3064 3064 3065 3066 3066 3066 3068 3069 3071 3071 3071 3072 3072 3073 3074 3074 3075 3077 3077 3077 3077 3077 3077 3078 3078 3079 3080 3081 3082 3082 3083 3084 3084 3085 3085 3086 3089 3091 3091 3091 3091 3091 3091 3092 3092 3092 3092 3092 3092 3091 3091 3092 3091 3091 3093 3095 3096 3097 3098 3099 3100 3100
3056 3055 3056 3057 3058 3059 3060 3059 3059 3060 3060 3061 3062 3062 3062 3061 3060 3060 3061 3061 3062 3063 3064 3064 3064 3063 3062 3062 3063 3064 3064 3065 3066 3067 3068 3069 3070 3070 3070 3071 3072 3073 3074 3075 3075 3076 3076 3076 3076 3076 3077 3078 3079 3080 3080 3081 3082 3082 3083 3083 3084 3084 3085 3087 3088 3088 3089 3090 3090 3090 3091 3091 3091 3092 3091 3090 3090 3090 3090 3090 3092 3094 3095 3097 3098 3099 3099 3100
3052 3052 3052 3054 3055 3056 3056 3056 3056 3057 3057 3059 3059 3058 3057 3058 3059 3059 3060 3061 3062 3062 3062 3062 3061 3061 3061 3061 3061 3061 3062 3063 3064 3065 3066 3067 3068 3068 3068 3069 3070 3071 3071 3073 3073 3074 3075 3075 3075 3075 3076 3077 3078 3079 3079 3080 3080 3081 3082 3082 3083 3083 3084 3085 3086 3087 3088 3090 3090 3089 3089 3089 3090 3091 3092 3092 3092 3091 3091 3091 3092 3093 3095 3096 3098 3098 3099 3099
3049 3049 3049 3051 3052 3052 3052 3052 3053 3054 3055 3055 3055 3055 3055 3056 3057 3058 3059 3059 3060 3061 3061 3061 3059 3058 3059 3059 3059 3060 3060 3061 3062 3063 3065 3066 3066 3066 3067 3067 3068 3069 3069 3071 3071 3072 3073 3073 3073 3074 3074 3075 3076 3077 3078 3079 3079 3080 3081 3081 3082 3083 3084 3084 3085 3087 3089 3091 3089 3088 3088 3089 3089 3090 3091 3092 3093 3093 3093 3093 3093 3094 3095 3096 3097 3098 3099 3100
3046 3046 3047 3047 3048 3048 3048 3049 3050 3051 3052 3052 3052 3052 3053 3054 3055 3056 3057 3058 3059 3060 3060 3060 3059 3058 3057 3057 3057 3058 3058 3059 3061 3062 3063 3065 3065 3065 3065 3065 3066 3067 3068 3069 3070 3071 3072 3072 3073 3073 3074 3075 3075 3076 3077 3078 3079 3080 3080 3080 3081 3082 3082 3082 3084 3086 3089 3091 3090 3087 3087 3088 3089 3090 3090 3091 3092 3092 3092 3093 3094 3094 3095 3096 3097 3098 3100 3100
3043 3044 3044 3044 3044 3045 3045 3047 3048 3049 3049 3049 3050 3050 3051 3052 3053 3055 3056 3057 3058 3059 3058 3058 3058 3057 3056 3056 3056 3057 3057 3059 3061 3061 3062 3062 3063 3063 3064 3064 3064 3064 3066 3067 3068 3069 3070 3071 3072 3072 3074 3075 3075 3075 3076 3077 3077 3078 3078 3079 3079 3080 3080 3081 3082 3083 3085 3089 3090 3088 3087 3089 3090 3089 3089 3089 3090 3090 3090 3091 3093 3093 3094 3095 3096 3098 3099 3099
3041 3042 3042 3041 3042 3042 3044 3045 3046 3046 3047 3047 3048 3048 3049 3051 3052 3053 3055 3056 3057 3057 3057 3057 3057 3057 3056 3055 3056 3057 3058 3059 3060 3060 3061 3061 3061 3062 3063 3064 3064 3064 3065 3066 3066 3067 3068 3069 3070 3071 3073 3074 3075 3074 3075 3075 3076 3076 3077 3077 3078 3078 3079 3080 3082 3082 3083 3086 3089 3089 3089 3089 3089 3089 3088 3087 3088 3089 3090 3091 3092 3093 3093 3094 3095 3096 3097 3098
3039 3040 3041 3041 3041 3041 3042 3043 3044 3045 3045 3046 3047 3048 3049 3050 3050 3051 3053 3054 3055 3055 3055 3055 3056 3055 3055 3055 3055 3056 3057 3058 3058 3058 3059 3059 3060 3060 3062 3063 3064 3064 3064 3065 3065 3065 3066 3066 3068 3069 3071 3073 3074 3074 3074 3075 3076 3076 3076 3076 3076 3077 3078 3079 3081 3082 3083 3084 3086 3088 3089 3089 3089 3088 3088 3087 3088 3088 3090 3091 3091 3092 3092 3093 3094 3095 3096 3096
3038 3038 3040 3040 3040 3040 3041 3042 3043 3044 3045 3046 3047 3047 3048 3048 3048 3049 3050 3052 3053 3053 3053 3054 3054 3053 3053 3053 3053 3054 3055 3056 3056 3056 3056 3057 3058 3059 3060 3061 3062 3062 3062 3063 3063 3063 3064 3065 3066 3068 3069 3071 3073 3073 3073 3075 3076 3076 3075 3075 3076 3076 3077 3078 3079 3081 3081 3082 3083 3085 3087 3089 3089 3088 3087 3088 3088 3088 3089 3090 3091 3091 3091 3092 3093 3094 3094 3095
3036 3037 3038 3038 3038 3039 3040 3042 3042 3043 3044 3045 3046 3046 3046 3047 3047 3047 3048 3049 3050 3050 3051 3052 3051 3051 3050 3050 3051 3051 3052 3054 3056 3055 3055 3055 3055 3056 3058 3059 3060 3061 3061 3060 3061 3062 3063 3064 3065 3066 3067 3068 3070 3072 3073 3074 3074 3075 3075 3075 3076 3076 3077 3077 3077 3078 3079 3081 3082 3083 3086 3088 3088 3087 3087 3087 3087 3087 3088 3089 3090 3090 3090 3090 3092 3092 3092 3093
3035 3036 3035 3036 3037 3038 3039 3041 3042 3043 3043 3044 3044 3044 3045 3045 3045 3046 3047 3048 3048 3048 3048 3048 3048 3048 3049 3048 3049 3049 3050 3053 3054 3054 3052 3052 3053 3054 3056 3057 3058 3059 3060 3060 3060 3061 3062 3063 3064 3066 3067 3067 3068 3070 3072 3072 3072 3073 3075 3076 3076 3077 3077 3077 3077 3077 3078 3080 3081 3082 3085 3087 3087 3087 3086 3085 3086 3086 3087 3088 3088 3088 3088 3089 3089 3090 3091 3091
3034 3035 3034 3035 3035 3036 3037 3038 3040 3041 3042 3042 3042 3043 3043 3044 3044 3045 3046 3047 3046 3045 3044 3044 3044 3045 3046 3047 3047 3048 3049 3050 3051 3051 3051 3051 3052 3053 3055 3057 3057 3058 3059 3060 3061 3061 3062 3062 3063 3065 3066 3068 3069 3071 3071 3071 3071 3072 3073 3075 3076 3076 3076 3076 3077 3077 3078 3080 3080 3081 3083 3085 3085 3085 3084 3084 3085 3085 3085 3086 3087 3087 3087 3088 3088 3089 3089 3090
3034 3035 3035 3035 3035 3035 3036 3037 3038 3039 3040 3041 3041 3041 3042 3042 3042 3043 3045 3045 3044 3043 3041 3041 3042 3043 3044 3045 3046 3047 3047 3047 3048 3050 3050 3051 3051 3052 3055 3057 3057 3057 3058 3060 3061 3061 3062 3062 3062 3064 3065 3067 3069 3070 3070 3070 3071 3072 3072 3073 3074 3075 3075 3075 3076 3077 3078 3079 3080 3081 3082 3083 3084 3084 3084 3084 3084 3084 3084 3085 3086 3086 3087 3087 3087 3088 3088 3089
3035 3035 3035 3035 3034 3034 3035 3036 3037 3038 3039 3040 3040 3040 3040 3040 3039 3041 3041 3040 3040 3040 3038 3039 3040 3041 3042 3044 3044 3044 3045 3045 3046 3048 3050 3050 3051 3052 3053 3055 3056 3057 3058 3059 3060 3061 3061 3061 3062 3063 3064 3066 3067 3068 3069 3070 3070 3071 3071 3072 3072 3073 3074 3074 3075 3076 3077 3077 3079 3080 3081 3082 3083 3083 3083 3083 3083 3083 3084 3084 3084 3085 3086 3086 3086 3087 3087 3088
3036 3036 3036 3035 3035 3034 3033 3035 3037 3038 3039 3039 3038 3038 3038 3037 3037 3039 3038 3037 3038 3038 3037 3038 3039 3039 3040 3042 3043 3043 3044 3044 3046 3048 3049 3050 3050 3051 3052 3054 3055 3056 3057 3058 3058 3059 3060 3060 3061 3062 3064 3065 3066 3067 3068 3069 3070 3070 3070 3070 3071 3072 3073 3073 3074 3075 3075 3076 3077 3079 3079 3080 3081 3082 3081 3081 3081 3081 3081 3082 3083 3083 3083 3084 3084 3085 3085 3085
3036 3036 3037 3036 3035 3034 3034 3035 3036 3037 3037 3037 3037 3037 3037 3037 3037 3037 3036 3036 3036 3036 3037 3038 3039 3039 3040 3041 3042 3043 3043 3044 3046 3047 3049 3049 3050 3051 3052 3053 3054 3055 3055 3056 3056 3057 3058 3059 3060 3061 3062 3063 3064 3065 3066 3067 3068 3069 3069 3070 3071 3071 3071 3072 3073 3074 3074 3075 3075 3076 3077 3078 3080 3080 3079 3079 3079 3079 3079 3080 3081 3081 3081 3082 3082 3083 3083 3084
3037 3037 3038 3037 3036 3036 3036 3036 3036 3036 3036 3036 3036 3037 3037 3037 3036 3036 3035 3035 3035 3036 3037 3038 3038 3039 3040 3041 3042 3042 3043 3044 3045 3047 3048 3049 3050 3050 3051 3052 3053 3053 3054 3054 3055 3056 3057 3058 3059 3059 3061 3062 3063 3064 3065 3066 3067 3067 3068 3069 3069 3069 3070 3071 3072 3073 3073 3074 3074 3074 3075 3077 3078 3077 3077 3077 3077 3078 3078 3078 3079 3079 3080 3080 3081 3081 3082 3082
3039 3039 3039 3038 3038 3039 3039 3038 3037 3037 3036 3035 3035 3037 3037 3037 3037 3037 3036 3035 3035 3036 3037 3038 3038 3039 3041 3042 3042 3042 3043 3044 3045 3046 3047 3048 3049 3050 3051 3052 3052 3053 3053 3054 3054 3055 3056 3057 3057 3058 3059 3061 3062 3063 3064 3064 3065 3065 3066 3067 3067 3067 3068 3070 3070 3071 3072 3072 3073 3074 3074 3075 3076 3076 3076 3075 3075 3076 3077 3078 3078 3078 3078 3079 3080 3080 3080 3081
3040 3040 3040 3040 3039 3040 3040 3039 3038 3037 3037 3037 3036 3036 3036 3037 3038 3038 3037 3037 3036 3036 3037 3038 3039 3039 3040 3041 3042 3043 3043 3044 3044 3045 3046 3047 3048 3049 3050 3050 3051 3052 3053 3053 3054 3055 3056 3056 3056 3057 3058 3059 3060 3061 3062 3063 3064 3065 3065 3066 3066 3066 3068 3068 3068 3069 3070 3071 3072 3073 3073 3074 3074 3074 3074 3074 3073 3074 3075 3075 3075 3076 3076 3077 3078 3078 3078 3079